Location: Brahman Valley
(40.6513°N, 111.8855°W)
Time: 13:42:32
(UTC+00:00)

Vanguard 2 - Pass Details

Date: 15 May 2021
Orbit: 552 x 2937 km, 32.9° (Epoch: 14 June)

Event Time Altitude Azimuth Distance (km) Brightness Sun altitude
Rises 14:40:00 0° 261° (W) 4,743 11.0 26.5°
Reaches altitude 10° 14:42:42 10° 258° (WSW) 4,029 10.7 27.0°
Maximum altitude 14:54:03 63° 181° (S) 2,588 10.6 29.2°
Drops below altitude 10° 15:10:49 10° 107° (ESE) 5,722 13.3 32.3°
Sets 15:15:31 0° 105° (ESE) 6,788 13.4 33.2°
